Weather in Otradnoye

Russia / Khabarovsk Krai     47°29′36″N   134°42′08″E
temp.,
°C
wind,
m/s
gust,
m/s
humid.,
%
clouds,
%
prec.,
mm/h
press.,
hPa
HPBL,
m
27 february, sat
sat2701:00−20ssw22900 0.0 103520
04:00−21ssw11900 0.0 103520
07:00−20se22890 0.0 103620
10:00−15se11830 0.0 1035134
13:00−8ssw027244 0.0 1033548
16:00−7e127863 0.0 1028376
19:00−10se2486100 0.0 102590
22:00−10ese1286100 0.0 102357
28 february, sun
sun2801:00−7s41580100 0.0 1021428
04:00−5ssw61782100 0.0 1019582
07:00−3sw61593100 0.8 1019781
10:00−2w61197100 2.1 1019741
13:00−5w5992100 0.8 1021581
16:00−7w6978100 0.8 1022765
19:00−10wsw41083100 0.0 1025526
22:00−12wsw4984100 0.0 1027374
1 march, mon
mon101:00−16wsw3787100 0.0 1028190
04:00−20sw359067 0.0 103084
07:00−22sw36900 0.0 1032118
10:00−19wsw47830 0.0 1034407
13:00−15w47700 0.0 1034579
16:00−14wnw47660 0.0 1034955
19:00−19wsw22810 0.0 103420
22:00−20ssw23820 0.0 103421
2 march, tue
tue201:00−21ssw22760 0.0 103420
04:00−23sw117912 0.0 103320
07:00−22n1281100 0.0 103420
10:00−18wsw128499 0.0 1033161
13:00−15nw23740 0.0 1032503
16:00−15nnw24640 0.0 1031614
19:00−22w01830 0.0 103120
22:00−22s12760 0.0 103320
3 march, wed
wed301:00−23ssw11800 0.0 103120
04:00−23sse11810 0.0 103120
07:00−23se22790 0.0 103120
10:00−16se23730 0.0 1029163
13:00−10se136225 0.0 1025583
16:00−8wsw126462 0.0 1022401
19:00−12s1183100 0.0 102024
22:00−11sse1296100 0.3 101971